Waarnemingen

Advertentie
Mijn weer
Malmo/Sturup, Zweden (2636): temperatuur & dauwpunt: 15.05.2019 00:00:00 - 21.05.2019 00:00:00 (CEST)Malmo/Sturup, Zweden (2636): windsnelheid: 15.05.2019 00:00:00 - 21.05.2019 00:00:00 (CEST)Malmo/Sturup, Zweden (2636): windrichting: 15.05.2019 00:00:00 - 21.05.2019 00:00:00 (CEST)Malmo/Sturup, Zweden (2636): luchtdruk: 15.05.2019 00:00:00 - 21.05.2019 00:00:00 (CEST)Malmo/Sturup, Zweden (2636): zicht: 15.05.2019 00:00:00 - 21.05.2019 00:00:00 (CEST)
Datum & Tijd tt [°C] td [°C] ff [km/u] ff [kn] dd ppp [hPa] vv [km]
21.05.2019 00:00:00 16,6 13,7 9 5 ONO 1005,9 10
20.05.2019 23:00:00 16,5 13,6 15 8 NO 1005,9 10
20.05.2019 22:00:00 17,2 14,3 8 4 NO 1006,3 10
20.05.2019 21:00:00 18,2 14,9 11 6 ONO 1006,0 10
20.05.2019 20:00:00 19,6 15,7 16 9 ONO 1006,2 10
20.05.2019 19:00:00 21,1 14,7 18 10 ONO 1006,0 10
20.05.2019 18:00:00 22,5 15,8 16 9 NO 1005,8 10
20.05.2019 17:00:00 22,4 15,3 16 9 O 1005,8 10
20.05.2019 16:00:00 22,7 13,7 11 6 ONO 1006,1 10
20.05.2019 15:00:00 23,3 15,1 9 5 O 1006,7 10
20.05.2019 14:00:00 21,7 14,8 8 4 ONO 1007,1 10
20.05.2019 13:00:00 20,8 15,8 9 5 O 1007,0 10
20.05.2019 12:00:00 19,6 15,0 8 4 O 1007,1 10
20.05.2019 11:00:00 17,2 15,2 8 4 OZO 1007,2 10
20.05.2019 10:00:00 15,5 14,9 8 4 ONO 1007,2 6
20.05.2019 09:00:00 13,9 13,7 5 3 ONO 1007,2 2,5
20.05.2019 08:00:00 12,8 12,6 8 4 ONO 1007,0 0,7
20.05.2019 07:00:00 12,7 12,5 9 5 ONO 1007,2 1,3
20.05.2019 06:00:00 12,5 12,3 8 4 O 1007,2 0,4
20.05.2019 05:00:00 12,7 12,5 9 5 ONO 1007,0 1,0
20.05.2019 04:00:00 12,9 12,4 9 5 ONO 1007,3 4,2
20.05.2019 03:00:00 13,4 13,2 9 5 ONO 1007,4 4,4
20.05.2019 02:00:00 13,5 13,3 13 7 O 1007,9 4,4
20.05.2019 01:00:00 14,0 13,5 13 7 ONO 1008,3 10
20.05.2019 00:00:00 14,1 13,6 13 7 ONO 1008,5 10
19.05.2019 23:00:00 14,2 13,7 15 8 ONO 1008,8 10
19.05.2019 22:00:00 14,5 13,9 18 10 ONO 1009,0 10
19.05.2019 21:00:00 15,0 14,2 24 13 O 1009,1 10
19.05.2019 20:00:00 15,5 13,7 22 12 O 1008,9 10
19.05.2019 19:00:00 16,7 14,3 24 13 O 1008,9 10
19.05.2019 18:00:00 17,4 14,5 22 12 O 1009,2 10
19.05.2019 17:00:00 18,6 14,1 22 12 O 1009,6 10
19.05.2019 16:00:00 19,2 13,6 21 11 O 1009,7 10
19.05.2019 15:00:00 18,5 14,2 24 13 ONO 1010,0 10
19.05.2019 14:00:00 18,9 14,2 16 9 ONO 1010,2 10
19.05.2019 13:00:00 17,1 13,6 18 10 O 1010,4 10
19.05.2019 12:00:00 17,1 13,6 16 9 ONO 1010,4 10
19.05.2019 11:00:00 16,5 13,4 18 10 O 1010,6 10
19.05.2019 10:00:00 15,7 13,2 16 9 ONO 1010,5 10
19.05.2019 09:00:00 15,0 12,9 22 12 O 1010,4 10
19.05.2019 08:00:00 13,1 12,3 18 10 O 1010,5 9
19.05.2019 07:00:00 12,8 12,6 24 13 O 1010,4 3,4
19.05.2019 06:00:00 12,5 12,3 22 12 O 1010,4 3,5
19.05.2019 05:00:00 12,2 12,0 16 9 ONO 1010,5 2,3
19.05.2019 04:00:00 12,1 11,9 22 12 O 1010,6 2,2
19.05.2019 03:00:00 12,4 12,2 21 11 ONO 1010,8 3,9
19.05.2019 02:00:00 12,4 12,2 15 8 ONO 1010,8 6
19.05.2019 01:00:00 12,3 12,1 21 11 O 1010,9 1,9
19.05.2019 00:00:00 12,2 12,0 18 10 O 1011,4 0,9
18.05.2019 23:00:00 12,0 11,5 18 10 O 1011,7 2,6
18.05.2019 22:00:00 12,2 11,4 15 8 O 1011,5 6
18.05.2019 21:00:00 13,1 12,2 15 8 ONO 1011,3 9
18.05.2019 20:00:00 14,7 12,7 18 10 ONO 1011,0 10
18.05.2019 19:00:00 15,9 12,6 16 9 ONO 1011,1 10
18.05.2019 18:00:00 16,0 12,2 28 15 O 1011,2 10
18.05.2019 17:00:00 18,3 11,8 21 11 O 1011,2 10
18.05.2019 16:00:00 18,6 11,7 18 10 OZO 1011,5 10
18.05.2019 15:00:00 18,4 11,0 18 10 O 1011,8 10
18.05.2019 14:00:00 18,0 12,0 21 11 O 1012,4 10
18.05.2019 13:00:00 17,3 13,6 16 9 O 1012,3 10
18.05.2019 12:00:00 17,1 14,0 16 9 O 1012,3 10
18.05.2019 11:00:00 15,3 13,0 15 8 O 1012,6 10
18.05.2019 10:00:00 14,0 12,0 13 7 O 1012,7 10
18.05.2019 09:00:00 14,6 12,6 9 5 O 1012,5 10
18.05.2019 08:00:00 11,5 11,3 13 7 ONO 1012,4 0,9
18.05.2019 07:00:00 10,2 10,0 9 5 ONO 1012,6 0,4
18.05.2019 06:00:00 9,6 9,5 11 6 O 1012,8 0,4
18.05.2019 05:00:00 10,1 9,9 9 5 O 1012,6 0,3
18.05.2019 04:00:00 10,2 10,0 8 4 O 1012,6 0,7
18.05.2019 03:00:00 9,8 9,7 11 6 O 1012,6 3,9
18.05.2019 02:00:00 9,8 9,3 13 7 O 1012,3 7
18.05.2019 01:00:00 9,5 9,2 8 4 O 1012,2 8
18.05.2019 00:00:00 9,3 8,8 15 8 O 1012,4 8
17.05.2019 23:00:00 9,5 9,0 24 13 O 1012,3 10
17.05.2019 22:00:00 9,6 8,8 22 12 O 1012,5 10
17.05.2019 21:00:00 9,8 8,7 28 15 O 1012,5 10
17.05.2019 20:00:00 9,7 8,3 29 16 O 1012,3 10
17.05.2019 19:00:00 9,6 8,4 31 17 O 1012,6 10
17.05.2019 18:00:00 9,3 8,2 31 17 O 1013,0 10
17.05.2019 17:00:00 9,1 8,3 34 18 O 1013,2 6
17.05.2019 16:00:00 9,7 8,5 34 18 O 1013,4 10
17.05.2019 15:00:00 9,7 8,6 31 17 O 1013,7 10
17.05.2019 14:00:00 9,8 8,7 31 17 O 1013,8 7
17.05.2019 13:00:00 10,1 9,0 31 17 ONO 1013,8 10
17.05.2019 12:00:00 9,9 8,8 31 17 ONO 1014,0 10
17.05.2019 11:00:00 9,5 8,4 31 17 ONO 1014,5 7
17.05.2019 10:00:00 9,6 8,4 29 16 ONO 1014,8 10
17.05.2019 09:00:00 9,5 8,1 28 15 ONO 1015,1 10
17.05.2019 08:00:00 9,3 7,4 28 15 ONO 1015,6 7
17.05.2019 07:00:00 9,1 7,1 28 15 O 1015,7 10
17.05.2019 06:00:00 9,6 6,7 28 15 O 1016,1 10
17.05.2019 05:00:00 9,0 7,0 28 15 ONO 1016,3 10
17.05.2019 04:00:00 9,8 5,8 37 20 ONO 1016,3 10
17.05.2019 03:00:00 10,8 3,8 35 19 ONO 1016,6 10
17.05.2019 02:00:00 11,3 3,3 35 19 ONO 1017,3 10
17.05.2019 01:00:00 11,8 2,3 31 17 ONO 1017,9 10
17.05.2019 00:00:00 12,5 1,5 29 16 ONO 1018,5 10
16.05.2019 23:00:00 11,8 2,5 28 15 ONO 1019,3 10
16.05.2019 22:00:00 12,7 1,4 29 16 ONO 1020,0 10
16.05.2019 21:00:00 13,5 1,2 31 17 ONO 1019,8 10
16.05.2019 20:00:00 14,4 0,6 37 20 O 1019,9 10
16.05.2019 19:00:00 15,8 0,4 35 19 ONO 1019,8 10
16.05.2019 18:00:00 16,4 0,1 44 24 O 1020,2 10
16.05.2019 17:00:00 16,8 0,0 52 28 O 1020,3 10
16.05.2019 16:00:00 17,2 -0,5 50 27 ONO 1020,8 10
16.05.2019 15:00:00 17,8 0,4 50 27 ONO 1021,0 10
16.05.2019 14:00:00 17,5 0,6 44 24 ONO 1021,2 10
16.05.2019 13:00:00 17,6 0,7 46 25 ONO 1021,4 10
16.05.2019 12:00:00 16,4 0,5 44 24 O 1021,8 10
16.05.2019 11:00:00 16,1 0,6 41 22 O 1022,1 10
16.05.2019 10:00:00 16,1 1,8 31 17 ONO 1022,5 10
16.05.2019 09:00:00 12,0 0,7 26 14 NO 1023,1 10
16.05.2019 08:00:00 9,3 -0,1 21 11 NO 1023,5 10
16.05.2019 07:00:00 7,6 -0,9 16 9 N 1023,6 10
16.05.2019 06:00:00 6,5 -1,2 15 8 N 1024,3 10
16.05.2019 05:00:00 6,1 -1,3 11 6 NNO 1024,8 10
16.05.2019 04:00:00 6,6 -1,8 16 9 NO 1025,5 10
16.05.2019 03:00:00 4,3 -0,1 13 7 N 1026,2 10
16.05.2019 02:00:00 4,9 0,8 11 6 N 1026,6 10
16.05.2019 01:00:00 6,3 1,0 11 6 N 1027,0 10
16.05.2019 00:00:00 7,0 -0,5 9 5 N 1027,5 10
15.05.2019 23:00:00 6,3 -0,4 5 3 - 1027,8 10
15.05.2019 22:00:00 7,3 -2,2 4 2 NO 1028,2 10
15.05.2019 21:00:00 10,1 -4,3 9 5 O 1028,1 10
15.05.2019 20:00:00 11,8 -4,8 13 7 O 1027,9 10
15.05.2019 19:00:00 12,4 -2,6 13 7 O 1028,0 10
15.05.2019 18:00:00 13,6 -1,6 21 11 O 1027,8 10
15.05.2019 17:00:00 14,0 -2,0 18 10 O 1027,7 10
15.05.2019 16:00:00 14,5 -1,2 18 10 O 1028,1 10
15.05.2019 15:00:00 14,5 -0,8 21 11 O 1028,4 10
15.05.2019 14:00:00 14,6 -0,3 22 12 ONO 1028,7 10
15.05.2019 13:00:00 14,6 0,1 21 11 O 1029,1 10
15.05.2019 12:00:00 13,5 -3,3 18 10 ONO 1029,8 10
15.05.2019 11:00:00 13,3 -3,1 18 10 O 1030,0 10
15.05.2019 10:00:00 13,1 -0,5 16 9 ONO 1030,0 10
15.05.2019 09:00:00 12,5 -0,4 8 4 NNO 1030,2 10
15.05.2019 08:00:00 9,0 3,0 8 4 N 1030,2 10
15.05.2019 07:00:00 5,3 3,3 8 4 N 1030,2 10
15.05.2019 06:00:00 0,9 0,3 8 4 N 1030,4 10
15.05.2019 05:00:00 0,1 0,0 4 2 N 1030,6 10
15.05.2019 04:00:00 -0,4 -0,5 0 0 N 1030,6 10
15.05.2019 03:00:00 0,7 0,4 0 0 N 1030,9 10
15.05.2019 02:00:00 1,3 0,7 4 2 ONO 1031,2 10
15.05.2019 01:00:00 2,3 1,7 5 3 O 1031,6 10
15.05.2019 00:00:00 3,7 2,4 5 3 O 1031,8 10

tt = temperatuur
td = dauwpunt
ff = windsnelheid
dd = windrichting
ppp = luchtdruk
vv = zicht

Weerstations in de omgeving